Volver al catálogo

COSMOS 1579 COOLANT

LostLEO
NORAD 27910·DEBRIS·🇷🇺 Russia

Lanzado Jun 29, 1984 desde Baikonur Cosmodrome

Loading…

Próximos Pases (próximas 24 horas)

TLE

ObsoletoSource: Space-Track

Época: Jul 10, 2020, 06:24 UTC

1 27910U 84069AC  20192.26731532 -.00000088  00000-0  00000+0 0  9995
2 27910  65.0488 150.0627 0067798  28.5846 331.8847 13.84177674891564

Sigue COSMOS 1579 COOLANT en tiempo real con AllMySat

Download on the App Store